User: anonymous   Login
Location: Ar Ranvel
(48.3000°N, 4.8833°W)
Time: 10:23:23
(UTC+00:00)
Language:

Cosmos 1867 - Orbit

View from above orbital plane
View from above orbital plane
View from above satellite
View from above satellite

Ground track
Ground track

The orbit data is extracted from the following two-line orbital elements,

1 18187U 87060A   21267.88317951 -.00000059  00000-0  15578-4 0  9991
2 18187  65.0109 180.9150 0020921 271.8258  88.0430 14.31126188787100
Epoch (UTC): 24 September 2021 21:11:46
Eccentricity: 0.0020921
inclination: 65.0109°
perigee height: 773 km
apogee height: 803 km
right ascension of ascending node: 180.9150°
argument of perigee: 271.8258°
revolutions per day: 14.31126188
mean anomaly at epoch: 88.0430°
orbit number at epoch: 78710

The dashed part of the orbit path shows where the satellite is in the earth's shadow,  

DLR